Hourly Data Report for September 05, 2018

TORONTO CITY
ONTARIO
Current Station Operator: ECCC - MSC

43°40'00.000" N
79°24'00.000" W
112.50 m
6158355
71508
XTO

Download Data

Hourly Data (September 2018)
Hourly Data Report for September 5, 2018
TIME
LST
Temp Definition
°C
Dew Point Definition
°C
Rel Hum Definition
%
Precip. Amount Definition
mm

Wind Dir Definition
10's deg

Wind Spd Definition
km/h
Visibility Definition
km
Stn Press Definition
kPa
Hmdx Definition


Wind Chill Definition


Weather Definition


00:00 23.0 20.1 84 0.0 LegendMM LegendMM   100.84 31   LegendNANA
01:00 22.8 20.6 88 0.0 LegendMM LegendMM   100.80 31   LegendNANA
02:00 22.7 20.7 88 0.0 LegendMM LegendMM   100.79 31   LegendNANA
03:00 22.4 20.3 88 0.0 LegendMM LegendMM   100.75 30   LegendNANA
04:00 22.1 20.1 89 0.0 LegendMM LegendMM   100.75 30   LegendNANA
05:00 22.0 20.1 89 0.0 LegendMM LegendMM   100.74 30   LegendNANA
06:00 22.2 20.0 87 0.0 LegendMM LegendMM   100.75 30   LegendNANA
07:00 23.4 21.0 86 0.0 LegendMM LegendMM   100.75 32   LegendNANA
08:00 25.4 20.5 74 0.0 LegendMM LegendMM   100.74 33   LegendNANA
09:00 26.2 20.7 72 0.0 LegendMM LegendMM   100.75 34   LegendNANA
10:00 27.6 20.5 65 0.0 LegendMM LegendMM   100.74 36   LegendNANA
11:00 28.6 21.4 65 0.0 LegendMM LegendMM   100.66 37   LegendNANA
12:00 30.7 21.3 57 0.0 LegendMM LegendMM   100.60 39   LegendNANA
13:00 31.1 20.5 54 0.0 LegendMM LegendMM   100.52 39   LegendNANA
14:00 31.6 21.0 53 0.0 LegendMM LegendMM   100.44 40   LegendNANA
15:00 31.9 19.9 49 0.0 LegendMM LegendMM   100.36 39   LegendNANA
16:00 31.7 19.5 48 0.0 LegendMM LegendMM   100.33 39   LegendNANA
17:00 30.4 19.2 51 0.0 LegendMM LegendMM   100.36 37   LegendNANA
18:00 31.0 18.4 47 0.0 LegendMM LegendMM   100.36 37   LegendNANA
19:00 30.1 18.0 48 0.0 LegendMM LegendMM   100.35 36   LegendNANA
20:00 29.4 18.7 53 0.0 LegendMM LegendMM   100.42 36   LegendNANA
21:00 29.0 19.5 57 0.0 LegendMM LegendMM   100.43 36   LegendNANA
22:00 28.1 19.9 61 0.0 LegendMM LegendMM   100.44 36   LegendNANA
23:00 27.5 19.2 61 0.0 LegendMM LegendMM   100.49 34   LegendNANA

Notes on Data Quality.

Legend

  • E = Estimated
  • M = Missing
  • NA = Not Available*
  • [empty] = Indicates an unobserved value
Date modified: